Погода Островное

Погода Островное : погода сейчас, прогноз погоды и архив. Всё, что Вы хотите узнать о погоде Островное!

Поиск расширенной информации на нашем сайте:

Другие новости

Новости СМИ2

Главная страница сайта

Новости сайта

03.07.2017

Напоминаем, что на нашем специализированном сайте Метеоцентр.Азия вы можете получить высокодетализированные автоматические прогнозы погоды по пунктам России, СНГ и мира в авиационном формате (включающие направление и скорость ветра, видимость, явления погоды, количество и форму облачности, нижнюю и верхнюю границу облачности).

Рекомендуем: стеклянные торговые витрины

Погода Островное - сегодня

Время (UTC), дата Ветер
(°,м/с) 
Видим.   Явления Облачность Т
(°С)
Тd
(°С)
f(%) Тe
(°С)
Pmin
(гПа)
dP
(гПа)
Po
(мм)
O2
(г/м3)
Тmin Tmax R s Состояние
почвы
03 17.06.18 340 (С) 2{04}  20000 м    6/6 600 м 
[Cu hum]
+27.2 +3.4 22 +27  1003.6  -1.1  745  272           
06 17.06.18 280 (З) 4{09}  20000 м    8/6 600 м средняя 
[Cu Sc|Ac trans]
+25.4 +5.5 28 +25  1003.3  -0.5  744  274           
12 17.06.18 280 (З) 4{09}  20000 м    8/3 600 м средняя, верхняя 
[Sc|Ac trans|Ci fib]
+16.3 +8.6 60 +16  1004.1  0.2  745  282           
15 17.06.18 290 (З) 5{09}  20000 м    3/0 верхняя 
[Ci fib]
+10.6 +7.3 80 +9  1005.1  0.8  745  288           
18 17.06.18 310 (СЗ) 4{10}  20000 м    3/1 600 м верхняя 
[Sc|Ci fib]
+8 +6.1 88 +7  1006.5  1.3  746  291           
21 17.06.18 310 (СЗ) 4{05}  20000 м    9/8 300 м средняя 
[St|Ac trans]
+8.4 +5.5 82 +7  1006.8  0.3  747  291  +7.6        сухая 
03 18.06.18 310 (СЗ) 4{03}  20000 м    ясно 
+18.2 +6.2 45 +19  1005.2  -0.7  746  281           
06 18.06.18 310 (СЗ) 4{08}  20000 м    ясно верхняя 
[Ci fib]
+19.6 +5.6 40 +20  1004.9  -0.3  745  279           
12 18.06.18 280 (З) 4{08}  20000 м    3/3 600 м 
[Cu hum]
+10.6 +6.1 74 +10  1007.2  1.4  747  289           
15 18.06.18 290 (З) 3{07}  20000 м    ясно 
+5.5 +3.8 89 +4  1008.7  1.2  748  295           
18 18.06.18 290 (З) 3{08}  20000 м    10/10 50 м 
[St]
+4.5 +3.3 92 +3  1009.9  1.2  749  296           
21 18.06.18 290 (З) 4{07}  20000 м    10/1 300 м верхняя 
[St|Ci fib]
+7.4 +3.4 76 +6  1010.4  0.5  749  293  +2.9        сухая 
03 19.06.18 280 (З) 3{07}  20000 м    8/0 средняя, верхняя 
[Ac trans|Ci fib]
+18.5 +2.1 33 +19  1008.2  -1  748  282           
06 19.06.18 320 (СЗ) 2{07}  20000 м    10/0 средняя, верхняя 
[Ac trans|Ci fib]
+19 +0.4 29 +20  1008  -0.2  748  282           
12 19.06.18 060 (СВ) 2{09}  20000 м    8/5 600 м средняя, верхняя 
[Sc|Ac trans|Ci fib]
+10.8 +2.5 56 +11  1011  0.9  750  290           
15 19.06.18 080 (В) 2{07}  20000 м    4/1 600 м средняя, верхняя 
[Sc|Ac trans|Ci fib]
+6.6 +1.7 71 +6  1012  0.8  750  295           
18 19.06.18 100 (В) 1{05}  20000 м    3/1 600 м верхняя 
[Sc|Ci fib]
+9.3 +1.9 60 +10  1012.4  0.5  751  292           
21 19.06.18 120 (ЮВ) 2{04}  20000 м    1/0 верхняя 
[Ci fib]
+14 +2.9 47 +15  1012.3  0.1  751  287  +6.3        сухая 
03 20.06.18 030 (СВ) 1{03}  20000 м    6/4 600 м средняя 
[Sc|Ac trans]
+20.8 +2.5 30 +21  1010.7  -0.8  750  280           
06 20.06.18 320 (СЗ) 2{03}  20000 м    6/6 600 м кучево-дожд., средняя 
[Cb calv|Ac trans]
+22.1 +3.4 29 +22  1010  -0.6  749  279           
12 20.06.18 130 (ЮВ) 1{06}  20000 м    3/0 верхняя 
[Ci fib]
+13.8 +6.2 60 +15  1011.7  1.2  750  287           
15 20.06.18 110 (В) 1{03}  20000 м    ясно 
+10.3 +5.3 71 +11  1012.5  0.7  751  291           
18 20.06.18 090 (В) 2{05}  20000 м    ясно 
+14.7 +7.4 62 +15  1012.9  0.6  751  286           
03 21.06.18 090 (В) 1{04}  20000 м    5/5 600 м 
[Cu med, cong]
+24.9 +3.2 24 +25  1010.7  -1.1  750  276           
06 21.06.18 090 (В) 1{02}  20000 м    5/5 600 м 
[Cu med, cong]
+26 +0.9 19 +26  1009.8  -0.9  749  275           
Время (UTC), дата Ветер
(°,м/с) 
Видим.   Явления Облачность Т
(°С)
Тd
(°С)
f(%) Тe
(°С)
Pmin
(гПа)
dP
(гПа)
Po
(мм)
O2
(г/м3)
Тmin Tmax R s Состояние
почвы

Для получения пояснительной информации подведите курсор к названию столбца.

ПОГОДА Островное - архив

Всё, что Вы хотите узнать о погоде Островное - удобно и подробно!

Выберите нужную дату (начиная с 1 января 2015* года) и нажмите кнопку "Найти".
Будут отображены архивные сводки погоды по пункту Островное, начиная с указанной даты.


Отображать данные в формате CSV (для использования в таблицах Excel)


Внимание! Наш архив погоды предназначен исключительно для личного некоммерческого использования в познавательных целях. Если Вам необходимы официальные справки о состоянии погоды (для производственных, юридических, коммерческих и т.п. целей), обращайтесь в органы Росгидромета.

*Примечание: данная дата относится к архиву по метеостанциям СССР (Россия, СНГ, Балтия).
Архив по метеостанциям Зарубежной Европы и Азии (кроме Китая) хранится 10 дней, по другим регионам земного шара (Китай, Африка, Америка, Австралия, Океания) - 1 день.

Островное - район местоположения метеостанции


Название, широта, долгота, высота метеостанции:
Островное 68.12°ш. 164.16°д. 94 м над ур. моря [Российская Федерация]

Дополнительная информация

В oтличие oт бoльшинства пoгoдных сайтoв мы публикуем пoдрoбную метеoинфoрмацию в детальнoм прoфессиoнальнoм фoрмате.

Характеристики температуры и влажнoсти вoздуха измеряются на высoте 2 м в тени вдали oт зданий и деревьев.
Скoрoсть ветра измеряется на высoте 10 м (на урoвне рoста челoвека скoрoсть ветра ниже в 1.5-2 раза). Если метеoстанция нахoдится в гoрoде или в лесу, тo скoрoсть ветра занижена на 2-4 м/с пo сравнению с oткрытым местoм. Скoрoсть ветра над акватoриями крупных рек и oзёр, а также на вершинах хoлмoв на 2-5 м/с выше, чем в oбычных услoвиях.
Атмoсфернoе давление в разных тoчках местнoсти мoжет значительнo oтличаться oт давления на метеoстанции, в зависимoсти oт услoвий рельефа (при пoдъёме на 10 м давление пoнижается примернo на 1 мм рт.ст.).